Wind_Speed
1 1 1 1 1 2 3 3 3 4 4 5 4 3 3 2 2 3 4 4 4 4 5 5 5 6 6 6 6 6 6 6 6 6 5 5 5 5 5 6 6 7 7
1 2 2 1 1 2 3 3 3 4 4 5 5 4 3 2 3 3 4 5 5 5 6 6 6 6 7 7 7 7 7 7 7 7 6 6 6 5 6 6 6 7 8
2 2 2 2 2 2 3 3 3 4 4 4 4 4 4 4 4 4 5 5 6 6 7 7 7 7 7 7 8 8 8 9 9 8 7 7 7 7 7 7 7 7 8
2 2 2 2 2 3 3 3 3 4 5 5 4 4 4 5 5 6 6 6 7 7 8 8 8 8 8 8 8 9 9 10 9 8 8 8 8 8 8 8 8 8 8
2 2 2 2 3 3 3 3 3 4 4 5 5 5 5 5 6 6 7 7 8 8 8 9 9 9 10 10 10 10 10 10 10 9 9 9 8 8 9 9 9 9 9
3 3 3 3 3 3 3 3 3 4 5 5 6 6 6 6 7 8 8 8 9 9 9 10 10 11 12 11 11 11 11 10 10 10 9 9 9 9 9 10 10 11 11
3 3 3 3 3 3 3 4 4 4 5 6 6 6 7 8 9 9 9 9 10 10 11 11 11 12 13 12 12 12 12 11 10 11 11 10 10 10 10 10 11 12 12
3 3 3 3 3 4 4 5 5 5 6 7 7 8 8 9 9 10 10 10 11 11 12 12 12 12 13 13 13 12 12 11 11 11 11 11 11 10 11 11 11 11 11
4 4 5 5 5 6 7 7 7 7 7 8 9 10 10 10 10 11 11 11 12 13 13 13 14 13 14 14 14 13 12 12 12 12 12 12 12 12 12 12 11 11 10
5 6 7 7 7 7 8 8 8 8 8 9 10 11 12 12 12 12 12 13 13 14 15 15 15 15 15 15 14 13 13 13 13 13 13 13 13 13 13 13 12 12 11
7 7 8 8 9 9 9 10 10 10 10 11 11 12 13 13 13 13 14 14 14 15 16 16 17 17 16 16 15 15 14 14 15 14 14 15 15 14 15 14 14 13 13
8 8 9 9 9 10 11 11 11 11 12 12 13 13 14 14 15 15 16 16 16 16 17 17 18 18 17 17 17 16 16 16 16 15 15 15 16 16 16 16 15 15 15
9 9 9 10 11 11 12 12 12 13 13 14 15 15 16 16 16 17 17 17 17 18 18 18 18 18 18 18 18 17 17 17 17 17 17 17 17 17 17 17 17 16 16
10 10 11 12 12 13 13 14 14 15 15 16 16 17 17 18 18 18 18 19 19 19 20 19 20 20 19 18 18 18 17 17 17 17 17 18 18 18 17 18 18 17 17
12 12 13 13 14 15 15 16 16 17 17 18 18 19 19 19 20 20 20 20 21 21 21 22 21 20 19 19 19 18 18 18 18 19 19 19 19 19 19 19 18 18 17
14 14 15 16 17 17 18 18 18 19 19 19 20 20 21 21 21 21 21 22 22 23 23 23 22 21 20 21 20 20 20 20 20 20 20 20 20 20 19 19 19 19 18
16 17 17 18 19 19 19 20 20 21 21 21 21 22 22 22 22 22 23 23 24 24 24 24 24 23 22 22 21 21 21 21 21 21 21 21 21 21 21 20 20 20 20
19 19 19 20 21 21 21 22 22 22 22 23 23 24 24 24 24 24 24 25 25 25 25 24 24 24 23 22 22 22 22 22 22 22 22 22 22 22 21 21 21 21 21
21 20 20 21 22 23 23 23 24 24 24 24 24 25 25 25 25 25 26 26 26 26 26 26 25 24 23 23 24 24 24 23 23 22 22 22 22 22 22 22 22 23 22
21 21 22 22 23 23 24 24 24 25 26 26 26 26 26 25 26 27 26 26 27 27 26 26 25 24 24 24 24 24 24 24 24 23 23 23 23 23 23 23 24 24 24
22 23 23 23 24 24 24 25 26 27 26 27 27 27 27 26 27 27 27 27 28 27 27 26 25 24 24 24 25 25 24 25 25 24 24 24 24 24 24 25 25 26 26
23 23 24 24 25 25 26 26 27 28 28 28 28 28 27 27 27 28 28 28 28 28 27 26 25 25 24 25 26 26 26 26 26 26 26 26 26 26 26 26 26 27 27
25 25 25 26 26 26 26 27 28 28 28 28 28 28 28 28 28 29 28 28 28 28 28 27 26 26 26 26 26 26 26 26 26 26 26 27 27 27 27 27 28 28 28
26 26 26 27 26 27 27 27 28 28 28 28 28 28 28 28 28 28 28 27 28 28 28 28 28 27 27 27 27 27 26 26 26 27 27 27 27 28 28 28 29 29 29
27 27 27 27 27 27 27 28 28 28 27 29 29 28 28 28 28 28 28 28 28 28 28 28 29 28 28 28 27 27 27 28 28 28 28 28 28 28 28 29 29 29 29
27 27 27 27 27 27 28 28 28 28 28 28 28 28 28 28 28 28 28 28 28 28 29 29 29 28 28 28 28 28 28 28 28 28 28 28 28 28 28 29 29 29 29
Wind_Direction
19 358 5 10 38 38 38 42 32 22 20 17 18 26 24 12 354 345 344 338 330 327 320 312 314 314 312 308 307 307 303 300 301 303 302 299 295 293 286 277 275 275 274
2 351 358 13 23 25 25 30 21 6 6 3 2 9 4 353 336 334 333 331 327 322 318 309 310 313 312 311 306 307 305 296 293 294 292 292 293 293 291 284 276 275 275
17 15 8 8 5 4 3 1 2 1 354 354 353 353 351 342 333 331 328 326 322 320 317 312 307 309 310 307 305 305 307 302 291 290 287 287 290 290 287 285 277 275 273
13 17 15 6 1 357 357 353 347 343 350 348 343 340 340 340 330 325 325 319 315 313 314 315 312 310 309 306 304 302 301 303 294 288 286 285 285 287 284 285 281 277 273
351 356 358 347 346 346 342 345 338 338 335 333 333 329 328 329 326 325 324 319 311 310 310 310 312 311 306 304 300 298 298 299 293 283 280 282 283 283 282 282 278 276 273
337 334 339 333 323 322 325 327 326 326 330 333 333 329 328 326 324 323 321 316 317 316 312 307 306 308 307 303 300 297 298 295 288 278 278 280 281 281 282 279 277 274 272
332 330 333 346 342 324 315 321 322 326 326 327 329 329 325 320 319 317 315 314 313 312 308 304 302 305 308 304 297 296 296 291 285 278 276 278 278 280 282 280 276 275 272
321 325 319 328 333 331 327 323 316 316 318 316 318 319 321 320 321 320 317 315 312 311 311 307 303 304 304 303 298 295 295 289 285 283 279 277 276 279 281 280 283 283 272
314 318 308 305 309 317 319 320 320 319 317 314 315 316 318 317 319 317 313 312 313 313 311 309 306 305 305 304 303 294 291 290 288 287 282 278 276 275 277 280 282 281 272
309 311 310 303 299 306 311 312 312 314 313 313 312 311 313 315 317 316 314 311 310 310 309 307 305 304 303 299 298 294 289 287 285 283 282 280 276 274 276 273 278 278 273
304 308 308 305 302 303 307 309 308 308 307 307 309 309 309 312 313 315 315 313 312 311 309 306 304 303 300 299 297 292 289 286 281 279 280 281 279 279 278 274 272 274 273
304 305 306 304 304 305 307 308 307 307 305 305 306 307 308 308 308 310 312 312 311 311 309 307 305 303 301 297 294 292 290 288 281 278 279 280 280 280 278 279 273 269 268
302 302 302 303 303 304 305 306 305 305 304 302 302 305 307 308 307 308 309 309 308 308 307 306 304 302 299 297 293 290 290 287 282 277 276 278 280 280 277 278 277 272 268
304 300 300 301 303 303 303 302 300 301 302 304 302 302 304 306 306 306 307 307 306 306 306 305 303 302 298 296 292 287 286 285 282 277 276 277 279 280 276 278 276 275 273
302 301 300 300 301 301 301 301 299 298 298 301 302 300 300 301 302 303 304 305 305 305 305 304 302 301 296 293 290 290 285 283 280 279 278 277 279 280 277 278 276 274 275
301 300 299 299 300 299 298 300 299 297 298 297 298 299 299 299 300 300 301 301 302 302 302 302 301 301 296 290 287 286 284 282 279 277 278 277 277 277 277 276 275 274 273
298 298 298 298 298 298 298 298 299 299 298 296 296 297 297 296 297 298 300 300 301 302 301 300 300 299 295 291 287 284 282 282 279 277 276 276 275 275 274 273 272 273 272
297 296 297 298 298 298 297 297 297 297 297 295 295 295 296 295 295 296 297 297 299 299 299 298 298 295 292 290 288 285 284 282 280 278 276 276 274 273 273 271 272 272 270
296 296 296 297 298 298 297 297 296 296 297 296 294 294 295 295 294 296 298 297 297 298 297 296 295 293 291 289 288 286 284 282 282 280 278 276 275 274 272 271 272 270 270
293 293 295 297 298 298 297 297 298 296 296 296 296 294 293 294 295 297 297 297 297 297 296 295 294 292 291 289 289 287 283 281 281 281 279 277 274 273 273 272 272 272 271
294 292 294 295 296 296 296 296 297 297 296 296 296 295 292 292 294 296 297 298 297 296 295 295 294 292 290 288 288 287 285 283 282 282 281 278 274 272 273 272 271 272 273
298 297 297 297 298 296 295 296 298 298 297 297 296 295 293 293 294 295 296 296 296 295 294 294 293 291 291 289 288 287 286 284 283 283 281 279 277 275 274 274 273 273 274
297 298 298 298 299 298 297 296 297 297 297 297 297 296 295 295 294 296 295 294 296 295 294 293 293 291 290 289 288 288 287 286 284 283 281 280 278 277 276 276 275 275 276
296 296 298 298 298 299 298 297 297 296 296 297 297 296 296 295 296 296 295 296 296 294 293 292 292 291 291 288 287 288 287 286 286 284 283 284 281 278 277 277 276 275 275
298 297 297 297 298 298 297 296 295 296 296 298 298 298 298 298 297 297 297 296 295 294 293 293 292 291 291 290 289 288 288 287 287 287 286 286 284 280 278 277 277 276 275
297 297 297 297 297 297 297 296 296 297 298 300 300 299 298 299 297 295 295 296 296 296 295 294 292 291 290 290 289 289 288 287 287 288 287 286 285 282 279 278 277 276 275
Height
5890 5890 5890 5890 5890 5890 5889 5889 5889 5888 5887 5886 5886 5885 5886 5886 5887 5887 5887 5887 5887 5886 5886 5885 5885 5885 5885 5885 5884 5884 5884 5883 5883 5883 5883 5883 5883 5883 5882 5882 5882 5882 5883
5890 5890 5890 5890 5890 5890 5889 5889 5889 5888 5888 5887 5886 5886 5886 5886 5887 5887 5887 5886 5886 5886 5885 5884 5884 5884 5884 5883 5883 5883 5882 5882 5882 5881 5881 5881 5881 5881 5881 5881 5881 5881 5881
5890 5891 5891 5890 5890 5890 5890 5889 5889 5889 5888 5887 5887 5887 5887 5887 5887 5886 5886 5886 5885 5885 5884 5884 5883 5883 5882 5882 5882 5881 5881 5880 5880 5880 5879 5879 5879 5879 5879 5879 5879 5879 5879
5891 5891 5891 5891 5890 5890 5890 5890 5889 5889 5888 5888 5887 5887 5886 5886 5886 5886 5885 5885 5884 5884 5883 5883 5882 5882 5881 5881 5880 5880 5879 5878 5878 5878 5878 5878 5877 5877 5877 5877 5877 5876 5877
5890 5890 5890 5890 5890 5890 5890 5890 5889 5889 5888 5888 5887 5887 5886 5886 5885 5885 5884 5884 5882 5882 5881 5881 5880 5880 5879 5879 5878 5878 5877 5876 5876 5875 5875 5875 5875 5875 5875 5874 5874 5874 5874
5890 5890 5890 5890 5890 5890 5889 5889 5889 5888 5888 5887 5887 5886 5885 5885 5884 5884 5883 5882 5880 5880 5880 5879 5879 5878 5877 5876 5876 5875 5875 5874 5873 5873 5873 5873 5873 5873 5872 5872 5871 5871 5871
5890 5890 5890 5890 5889 5889 5889 5889 5888 5888 5888 5887 5886 5886 5885 5884 5883 5882 5881 5881 5879 5879 5878 5877 5877 5876 5875 5874 5873 5873 5872 5871 5871 5871 5871 5871 5871 5870 5870 5869 5868 5867 5866
5890 5890 5890 5890 5889 5889 5889 5888 5888 5887 5886 5886 5885 5885 5884 5883 5882 5881 5880 5879 5878 5877 5876 5875 5874 5873 5872 5872 5871 5870 5869 5869 5869 5869 5868 5868 5868 5867 5867 5866 5865 5863 5862
5890 5889 5889 5889 5889 5889 5888 5887 5887 5886 5885 5885 5884 5883 5882 5881 5880 5879 5878 5876 5875 5874 5873 5872 5871 5870 5869 5868 5868 5867 5866 5866 5866 5866 5865 5865 5865 5864 5864 5863 5862 5861 5860
5889 5889 5889 5888 5888 5887 5887 5886 5885 5885 5884 5883 5882 5881 5881 5879 5878 5877 5876 5874 5873 5872 5870 5869 5868 5867 5866 5864 5864 5864 5863 5863 5862 5862 5862 5862 5861 5861 5861 5860 5860 5859 5859
5888 5887 5887 5887 5886 5886 5885 5884 5884 5883 5882 5881 5880 5879 5878 5877 5876 5874 5873 5872 5871 5869 5867 5866 5865 5863 5862 5861 5860 5860 5860 5859 5858 5858 5858 5858 5858 5858 5857 5857 5856 5856 5856
5886 5886 5885 5885 5884 5884 5883 5882 5881 5880 5879 5878 5877 5876 5875 5874 5873 5872 5870 5869 5867 5866 5864 5863 5861 5860 5858 5857 5857 5856 5855 5855 5854 5854 5854 5854 5854 5854 5854 5853 5852 5852 5853
5884 5884 5883 5883 5882 5881 5880 5880 5879 5878 5876 5875 5874 5873 5872 5871 5870 5868 5867 5865 5864 5862 5861 5859 5857 5855 5854 5853 5852 5851 5851 5850 5850 5850 5850 5850 5849 5849 5849 5849 5848 5848 5848
5882 5881 5881 5880 5879 5879 5878 5877 5875 5874 5873 5872 5871 5870 5868 5867 5866 5864 5862 5861 5859 5858 5856 5854 5853 5851 5850 5849 5848 5847 5846 5846 5845 5845 5845 5845 5845 5845 5844 5844 5844 5844 5843
5880 5879 5878 5877 5877 5876 5874 5873 5872 5871 5869 5868 5867 5866 5864 5863 5861 5860 5858 5856 5855 5853 5851 5849 5848 5846 5845 5843 5842 5842 5841 5841 5840 5840 5840 5840 5840 5840 5839 5839 5839 5838 5839
5877 5876 5875 5874 5873 5872 5871 5869 5868 5866 5865 5864 5862 5861 5860 5858 5857 5855 5853 5851 5849 5847 5846 5844 5842 5840 5839 5838 5837 5836 5836 5835 5835 5835 5834 5834 5834 5834 5834 5834 5833 5834 5834
5874 5873 5872 5870 5869 5868 5866 5865 5864 5862 5861 5859 5858 5856 5855 5853 5851 5850 5848 5846 5844 5842 5841 5839 5837 5835 5834 5832 5831 5830 5830 5829 5829 5828 5828 5828 5828 5828 5828 5828 5828 5828 5828
5870 5869 5867 5866 5865 5863 5861 5860 5858 5857 5856 5854 5853 5851 5849 5848 5846 5844 5842 5840 5838 5836 5835 5833 5831 5829 5827 5826 5825 5824 5823 5822 5822 5822 5822 5822 5822 5822 5821 5822 5822 5822 5822
5865 5864 5862 5861 5859 5858 5856 5854 5853 5851 5850 5848 5847 5845 5843 5842 5840 5838 5836 5834 5832 5830 5828 5826 5825 5823 5821 5820 5819 5818 5817 5816 5815 5815 5815 5815 5815 5815 5815 5815 5815 5815 5816
5859 5858 5856 5855 5854 5852 5850 5848 5847 5845 5843 5842 5840 5839 5837 5836 5834 5832 5830 5828 5826 5824 5821 5819 5818 5816 5815 5813 5812 5811 5810 5809 5808 5808 5807 5807 5807 5807 5808 5808 5808 5808 5808
5853 5852 5851 5849 5848 5846 5844 5842 5841 5839 5837 5835 5833 5832 5830 5829 5827 5825 5823 5821 5819 5817 5815 5813 5811 5809 5808 5806 5805 5804 5803 5802 5801 5800 5800 5799 5799 5800 5799 5800 5800 5800 5800
5847 5846 5844 5843 5841 5840 5838 5836 5834 5832 5830 5828 5826 5825 5823 5822 5820 5818 5816 5814 5812 5810 5807 5806 5804 5803 5801 5800 5798 5797 5796 5794 5793 5793 5792 5791 5791 5791 5791 5791 5791 5791 5791
5842 5840 5839 5837 5835 5833 5831 5830 5828 5826 5824 5822 5820 5818 5816 5814 5813 5810 5808 5807 5805 5802 5801 5799 5797 5795 5794 5792 5791 5789 5788 5786 5785 5784 5783 5783 5782 5782 5782 5782 5782 5782 5782
5836 5834 5832 5830 5829 5827 5825 5822 5821 5819 5817 5815 5813 5811 5809 5807 5805 5803 5801 5799 5797 5795 5793 5792 5790 5788 5786 5784 5783 5782 5780 5779 5778 5776 5775 5774 5773 5773 5772 5772 5773 5772 5772
5829 5828 5826 5824 5822 5820 5818 5816 5814 5812 5810 5809 5806 5804 5802 5800 5798 5796 5794 5792 5790 5788 5785 5783 5782 5780 5778 5776 5775 5774 5772 5771 5770 5768 5767 5766 5765 5764 5763 5763 5763 5763 5762
5823 5821 5819 5817 5815 5814 5812 5810 5808 5806 5804 5801 5799 5797 5795 5793 5790 5788 5786 5784 5782 5780 5778 5776 5774 5772 5770 5768 5766 5765 5764 5762 5761 5760 5758 5757 5756 5755 5755 5754 5753 5753 5752